Location: Boss Branch
(32.3799°N, 97.2508°W)
Time: 05:32:25
(UTC+00:00)

ACS3 Solar Sail - Visible Passes

Search period start: 12 October 2024 00:00
Search period end: 22 October 2024 00:00
Orbit: 960 x 1033 km, 97.5° (Epoch: 11 October)

Date Brightness Start Highest point End Pass type
(mag) Time Alt. Az. Time Alt. Az. Time Alt. Az.
12 Oct 3.4 00:59:34 14° ENE 00:59:34 14° ENE 01:02:35 10° NE visible
12 Oct 2.6 02:44:42 45° NNW 02:44:42 45° NNW 02:48:58 10° NNW visible
13 Oct 2.9 01:31:13 26° NE 01:31:13 26° NE 01:35:22 10° NNE visible
13 Oct 3.5 03:16:20 29° NW 03:16:20 29° NW 03:19:46 10° NNW visible
14 Oct 2.5 02:02:51 40° NNE 02:02:51 40° NNE 02:07:11 10° N visible
14 Oct 4.2 03:47:58 16° WNW 03:47:58 16° WNW 03:49:52 10° NW visible
15 Oct 3.6 00:49:20 12° ENE 00:49:20 12° ENE 00:51:14 10° NE visible
15 Oct 2.6 02:34:28 43° NNW 02:34:28 43° NNW 02:38:31 10° NNW visible
16 Oct 3.1 01:20:57 22° NE 01:20:57 22° NE 01:24:35 10° NNE visible
16 Oct 3.4 03:06:04 30° NW 03:06:04 30° NW 03:09:24 10° NNW visible
17 Oct 2.7 01:52:32 34° NE 01:52:32 34° NE 01:56:32 10° N visible
17 Oct 4.1 03:37:39 18° NW 03:37:39 18° NW 03:39:39 10° NW visible
18 Oct 2.7 02:24:07 39° N 02:24:07 39° N 02:27:55 10° N visible
19 Oct 3.2 01:10:34 18° NE 01:10:34 18° NE 01:13:36 10° NNE visible
19 Oct 3.3 02:55:41 31° NW 02:55:41 31° NW 02:58:52 10° NNW visible
20 Oct 2.9 01:42:07 29° NE 01:42:07 29° NE 01:45:42 10° N visible
20 Oct 4.0 03:27:14 19° NW 03:27:14 19° NW 03:29:16 10° NW visible
21 Oct 2.8 02:13:40 35° N 02:13:40 35° N 02:17:11 10° N visible
